Year,Month,Day,Hour,Minute,Value (Times are PST for insolation in W/m^2)
2020,07,07,00,00,0.00
2020,07,07,00,01,0.00
2020,07,07,00,02,0.00
2020,07,07,00,03,0.00
2020,07,07,00,04,0.00
2020,07,07,00,05,0.00
2020,07,07,00,06,0.00
2020,07,07,00,07,0.00
2020,07,07,00,08,0.00
2020,07,07,00,09,0.00
2020,07,07,00,10,0.00
2020,07,07,00,11,0.00
2020,07,07,00,12,0.00
2020,07,07,00,13,0.00
2020,07,07,00,14,0.00
2020,07,07,00,15,0.00
2020,07,07,00,16,0.00
2020,07,07,00,17,0.00
2020,07,07,00,18,0.00
2020,07,07,00,19,0.00
2020,07,07,00,20,0.00
2020,07,07,00,21,0.00
2020,07,07,00,22,0.00
2020,07,07,00,23,0.00
2020,07,07,00,24,0.00
2020,07,07,00,25,0.00
2020,07,07,00,26,0.00
2020,07,07,00,27,0.00
2020,07,07,00,28,0.00
2020,07,07,00,29,0.00
2020,07,07,00,30,0.00
2020,07,07,00,31,0.00
2020,07,07,00,32,0.00
2020,07,07,00,33,0.00
2020,07,07,00,34,0.00
2020,07,07,00,35,0.00
2020,07,07,00,36,0.00
2020,07,07,00,37,0.00
2020,07,07,00,38,0.00
2020,07,07,00,39,0.00
2020,07,07,00,40,0.00
2020,07,07,00,41,0.00
2020,07,07,00,42,0.00
2020,07,07,00,43,0.00
2020,07,07,00,44,0.00
2020,07,07,00,45,0.00
2020,07,07,00,46,0.00
2020,07,07,00,47,0.00
2020,07,07,00,48,0.00
2020,07,07,00,49,0.00
2020,07,07,00,50,0.00
2020,07,07,00,51,0.00
2020,07,07,00,52,0.00
2020,07,07,00,53,0.00
2020,07,07,00,54,0.00
2020,07,07,00,55,0.00
2020,07,07,00,56,0.00
2020,07,07,00,57,0.00
2020,07,07,00,58,0.00
2020,07,07,00,59,0.00
2020,07,07,01,00,0.00
2020,07,07,01,01,0.00
2020,07,07,01,02,0.00
2020,07,07,01,03,0.00
2020,07,07,01,04,0.00
2020,07,07,01,05,0.00
2020,07,07,01,06,0.00
2020,07,07,01,07,0.00
2020,07,07,01,08,0.00
2020,07,07,01,09,0.00
2020,07,07,01,10,0.00
2020,07,07,01,11,0.00
2020,07,07,01,12,0.00
2020,07,07,01,13,0.00
2020,07,07,01,14,0.00
2020,07,07,01,15,0.00
2020,07,07,01,16,0.00
2020,07,07,01,17,0.00
2020,07,07,01,18,0.00
2020,07,07,01,19,0.00
2020,07,07,01,20,0.00
2020,07,07,01,21,0.00
2020,07,07,01,22,0.00
2020,07,07,01,23,0.00
2020,07,07,01,24,0.00
2020,07,07,01,25,0.00
2020,07,07,01,26,0.00
2020,07,07,01,27,0.00
2020,07,07,01,28,0.00
2020,07,07,01,29,0.00
2020,07,07,01,30,0.00
2020,07,07,01,31,0.00
2020,07,07,01,32,0.00
2020,07,07,01,33,0.00
2020,07,07,01,34,0.00
2020,07,07,01,35,0.00
2020,07,07,01,36,0.00
2020,07,07,01,37,0.00
2020,07,07,01,38,0.00
2020,07,07,01,39,0.00
2020,07,07,01,40,0.00
2020,07,07,01,41,0.00
2020,07,07,01,42,0.00
2020,07,07,01,43,0.00
2020,07,07,01,44,0.00
2020,07,07,01,45,0.00
2020,07,07,01,46,0.00
2020,07,07,01,47,0.00
2020,07,07,01,48,0.00
2020,07,07,01,49,0.00
2020,07,07,01,50,0.00
2020,07,07,01,51,0.00
2020,07,07,01,52,0.00
2020,07,07,01,53,0.00
2020,07,07,01,54,0.00
2020,07,07,01,55,0.00
2020,07,07,01,56,0.00
2020,07,07,01,57,0.00
2020,07,07,01,58,0.00
2020,07,07,01,59,0.00
2020,07,07,02,00,0.00
2020,07,07,02,01,0.00
2020,07,07,02,02,0.00
2020,07,07,02,03,0.00
2020,07,07,02,04,0.00
2020,07,07,02,05,0.00
2020,07,07,02,06,0.00
2020,07,07,02,07,0.00
2020,07,07,02,08,0.00
2020,07,07,02,09,0.00
2020,07,07,02,10,0.00
2020,07,07,02,11,0.00
2020,07,07,02,12,0.00
2020,07,07,02,13,0.00
2020,07,07,02,14,0.00
2020,07,07,02,15,0.00
2020,07,07,02,16,0.00
2020,07,07,02,17,0.00
2020,07,07,02,18,0.00
2020,07,07,02,19,0.00
2020,07,07,02,20,0.00
2020,07,07,02,21,0.00
2020,07,07,02,22,0.00
2020,07,07,02,23,0.00
2020,07,07,02,24,0.00
2020,07,07,02,25,0.00
2020,07,07,02,26,0.00
2020,07,07,02,27,0.00
2020,07,07,02,28,0.00
2020,07,07,02,29,0.00
2020,07,07,02,30,0.00
2020,07,07,02,31,0.00
2020,07,07,02,32,0.00
2020,07,07,02,33,0.00
2020,07,07,02,34,0.00
2020,07,07,02,35,0.00
2020,07,07,02,36,0.00
2020,07,07,02,37,0.00
2020,07,07,02,38,0.00
2020,07,07,02,39,0.00
2020,07,07,02,40,0.00
2020,07,07,02,41,0.00
2020,07,07,02,42,0.00
2020,07,07,02,43,0.00
2020,07,07,02,44,0.00
2020,07,07,02,45,0.00
2020,07,07,02,46,0.00
2020,07,07,02,47,0.00
2020,07,07,02,48,0.00
2020,07,07,02,49,0.00
2020,07,07,02,50,0.00
2020,07,07,02,51,0.00
2020,07,07,02,52,0.00
2020,07,07,02,53,0.00
2020,07,07,02,54,0.00
2020,07,07,02,55,0.00
2020,07,07,02,56,0.00
2020,07,07,02,57,0.00
2020,07,07,02,58,0.00
2020,07,07,02,59,0.00
2020,07,07,03,00,0.00
2020,07,07,03,01,0.00
2020,07,07,03,02,0.00
2020,07,07,03,03,0.00
2020,07,07,03,04,0.00
2020,07,07,03,05,0.00
2020,07,07,03,06,0.00
2020,07,07,03,07,0.00
2020,07,07,03,08,0.00
2020,07,07,03,09,0.00
2020,07,07,03,10,0.00
2020,07,07,03,11,0.00
2020,07,07,03,12,0.00
2020,07,07,03,13,0.00
2020,07,07,03,14,0.00
2020,07,07,03,15,0.00
2020,07,07,03,16,0.00
2020,07,07,03,17,0.00
2020,07,07,03,18,0.00
2020,07,07,03,19,0.00
2020,07,07,03,20,0.00
2020,07,07,03,21,0.00
2020,07,07,03,22,0.00
2020,07,07,03,23,0.00
2020,07,07,03,24,0.00
2020,07,07,03,25,0.00
2020,07,07,03,26,0.00
2020,07,07,03,27,0.00
2020,07,07,03,28,0.00
2020,07,07,03,29,0.00
2020,07,07,03,30,0.00
2020,07,07,03,31,0.00
2020,07,07,03,32,0.00
2020,07,07,03,33,0.00
2020,07,07,03,34,0.00
2020,07,07,03,35,0.00
2020,07,07,03,36,0.00
2020,07,07,03,37,0.00
2020,07,07,03,38,0.00
2020,07,07,03,39,0.00
2020,07,07,03,40,0.00
2020,07,07,03,41,0.00
2020,07,07,03,42,0.00
2020,07,07,03,43,0.00
2020,07,07,03,44,0.00
2020,07,07,03,45,0.00
2020,07,07,03,46,0.00
2020,07,07,03,47,0.00
2020,07,07,03,48,0.00
2020,07,07,03,49,0.00
2020,07,07,03,50,0.00
2020,07,07,03,51,0.00
2020,07,07,03,52,0.00
2020,07,07,03,53,0.00
2020,07,07,03,54,0.00
2020,07,07,03,55,0.00
2020,07,07,03,56,0.00
2020,07,07,03,57,0.00
2020,07,07,03,58,0.00
2020,07,07,03,59,0.00
2020,07,07,04,00,0.00
2020,07,07,04,01,0.00
2020,07,07,04,02,0.00
2020,07,07,04,03,0.00
2020,07,07,04,04,0.00
2020,07,07,04,05,0.00
2020,07,07,04,06,0.00
2020,07,07,04,07,0.00
2020,07,07,04,08,0.00
2020,07,07,04,09,0.00
2020,07,07,04,10,0.00
2020,07,07,04,11,0.00
2020,07,07,04,12,0.00
2020,07,07,04,13,0.00
2020,07,07,04,14,0.00
2020,07,07,04,15,0.00
2020,07,07,04,16,0.00
2020,07,07,04,17,0.00
2020,07,07,04,18,0.00
2020,07,07,04,19,0.00
2020,07,07,04,20,0.00
2020,07,07,04,21,0.00
2020,07,07,04,22,0.00
2020,07,07,04,23,0.00
2020,07,07,04,24,0.00
2020,07,07,04,25,0.00
2020,07,07,04,26,0.00
2020,07,07,04,27,0.00
2020,07,07,04,28,0.00
2020,07,07,04,29,0.00
2020,07,07,04,30,0.00
2020,07,07,04,31,0.00
2020,07,07,04,32,0.00
2020,07,07,04,33,0.00
2020,07,07,04,34,0.00
2020,07,07,04,35,0.00
2020,07,07,04,36,0.00
2020,07,07,04,37,0.00
2020,07,07,04,38,0.00
2020,07,07,04,39,0.00
2020,07,07,04,40,0.00
2020,07,07,04,41,0.00
2020,07,07,04,42,0.00
2020,07,07,04,43,0.00
2020,07,07,04,44,0.00
2020,07,07,04,45,0.00
2020,07,07,04,46,0.00
2020,07,07,04,47,0.00
2020,07,07,04,48,0.00
2020,07,07,04,49,0.00
2020,07,07,04,50,0.00
2020,07,07,04,51,0.00
2020,07,07,04,52,0.00
2020,07,07,04,53,0.00
2020,07,07,04,54,0.00
2020,07,07,04,55,0.00
2020,07,07,04,56,0.00
2020,07,07,04,57,0.00
2020,07,07,04,58,0.00
2020,07,07,04,59,0.00
2020,07,07,05,00,0.00
2020,07,07,05,01,0.00
2020,07,07,05,02,0.00
2020,07,07,05,03,0.00
2020,07,07,05,04,0.00
2020,07,07,05,05,0.00
2020,07,07,05,06,0.00
2020,07,07,05,07,0.00
2020,07,07,05,08,0.00
2020,07,07,05,09,0.00
2020,07,07,05,10,0.00
2020,07,07,05,11,0.00
2020,07,07,05,12,0.00
2020,07,07,05,13,0.00
2020,07,07,05,14,0.00
2020,07,07,05,15,0.00
2020,07,07,05,16,0.00
2020,07,07,05,17,0.00
2020,07,07,05,18,0.00
2020,07,07,05,19,0.00
2020,07,07,05,20,0.00
2020,07,07,05,21,0.00
2020,07,07,05,22,0.00
2020,07,07,05,23,0.00
2020,07,07,05,24,0.00
2020,07,07,05,25,0.00
2020,07,07,05,26,0.00
2020,07,07,05,27,0.00
2020,07,07,05,28,0.00
2020,07,07,05,29,0.00
2020,07,07,05,30,0.00
2020,07,07,05,31,0.00
2020,07,07,05,32,0.00
2020,07,07,05,33,0.00
2020,07,07,05,34,0.00
2020,07,07,05,35,0.00
2020,07,07,05,36,0.00
2020,07,07,05,37,2.60
2020,07,07,05,38,5.00
2020,07,07,05,39,5.00
2020,07,07,05,40,5.00
2020,07,07,05,41,5.00
2020,07,07,05,42,6.60
2020,07,07,05,43,7.00
2020,07,07,05,44,7.00
2020,07,07,05,45,7.20
2020,07,07,05,46,9.00
2020,07,07,05,47,9.50
2020,07,07,05,48,11.00
2020,07,07,05,49,11.30
2020,07,07,05,50,12.00
2020,07,07,05,51,12.00
2020,07,07,05,52,12.00
2020,07,07,05,53,13.20
2020,07,07,05,54,14.00
2020,07,07,05,55,15.40
2020,07,07,05,56,16.00
2020,07,07,05,57,16.00
2020,07,07,05,58,17.80
2020,07,07,05,59,18.00
2020,07,07,06,00,19.00
2020,07,07,06,01,19.00
2020,07,07,06,02,19.00
2020,07,07,06,03,19.00
2020,07,07,06,04,19.00
2020,07,07,06,05,19.00
2020,07,07,06,06,19.00
2020,07,07,06,07,19.00
2020,07,07,06,08,19.00
2020,07,07,06,09,19.00
2020,07,07,06,10,19.00
2020,07,07,12,41,1078.00
2020,07,07,12,42,1078.00
2020,07,07,12,43,1078.00
2020,07,07,12,44,921.40
2020,07,07,12,45,831.00
2020,07,07,12,46,867.00
2020,07,07,12,47,867.00
2020,07,07,12,48,871.00
2020,07,07,12,49,872.00
2020,07,07,12,50,872.00
2020,07,07,12,51,1011.40
2020,07,07,12,52,1018.00
2020,07,07,12,53,966.50
2020,07,07,12,54,750.00
2020,07,07,12,55,798.00
2020,07,07,12,56,798.00
2020,07,07,12,57,798.00
2020,07,07,12,58,798.00
2020,07,07,12,59,919.50
2020,07,07,13,00,1030.00
2020,07,07,13,01,1030.00
2020,07,07,13,02,1116.40
2020,07,07,13,03,1171.90
2020,07,07,13,04,1178.00
2020,07,07,13,05,832.40
2020,07,07,13,06,796.00
2020,07,07,13,07,796.00
2020,07,07,13,08,801.90
2020,07,07,13,09,846.50
2020,07,07,13,10,879.00
2020,07,07,13,11,879.00
2020,07,07,13,12,789.90
2020,07,07,13,13,671.00
2020,07,07,13,14,671.00
2020,07,07,13,15,671.00
2020,07,07,13,16,671.00
2020,07,07,13,17,671.00
2020,07,07,13,18,671.00
2020,07,07,13,19,748.10
2020,07,07,13,20,761.00
2020,07,07,13,21,1110.40
2020,07,07,13,22,1127.00
2020,07,07,13,23,1109.00
2020,07,07,13,24,1028.00
2020,07,07,13,25,1028.00
2020,07,07,13,26,1028.00
2020,07,07,13,27,1028.00
2020,07,07,13,28,862.30
2020,07,07,13,29,682.10
2020,07,07,13,30,734.80
2020,07,07,13,31,770.00
2020,07,07,13,32,770.00
2020,07,07,13,33,770.00
2020,07,07,13,34,770.00
2020,07,07,13,35,770.00
2020,07,07,13,36,772.90
2020,07,07,13,37,773.00
2020,07,07,13,38,773.00
2020,07,07,13,39,773.00
2020,07,07,13,40,712.40
2020,07,07,13,41,569.40
2020,07,07,13,42,581.00
2020,07,07,13,43,584.10
2020,07,07,13,44,583.80
2020,07,07,13,45,590.60
2020,07,07,13,46,608.30
2020,07,07,13,47,597.30
2020,07,07,13,48,612.60
2020,07,07,13,49,575.30
2020,07,07,13,50,633.10
2020,07,07,13,51,617.30
2020,07,07,13,52,701.00
2020,07,07,13,53,701.00
2020,07,07,13,54,701.00
2020,07,07,13,55,761.00
2020,07,07,13,56,911.00
2020,07,07,13,57,911.00
2020,07,07,13,58,911.00
2020,07,07,13,59,851.80
2020,07,07,14,00,798.00
2020,07,07,14,01,714.70
2020,07,07,14,02,719.40
2020,07,07,14,03,807.50
2020,07,07,14,04,836.60
2020,07,07,14,05,875.10
2020,07,07,14,06,801.50
2020,07,07,14,07,754.00
2020,07,07,14,08,759.90
2020,07,07,14,09,795.00
2020,07,07,14,10,795.00
2020,07,07,14,11,816.10
2020,07,07,14,12,853.00
2020,07,07,14,13,853.00
2020,07,07,14,14,872.10
2020,07,07,14,15,888.00
2020,07,07,14,16,704.70
2020,07,07,14,17,613.00
2020,07,07,14,18,744.10
2020,07,07,14,19,775.00
2020,07,07,14,20,638.40
2020,07,07,14,21,596.00
2020,07,07,14,22,607.50
2020,07,07,14,23,607.70
2020,07,07,14,24,653.30
2020,07,07,14,25,686.90
2020,07,07,14,26,631.00
2020,07,07,14,27,644.20
2020,07,07,14,28,622.00
2020,07,07,14,29,620.50
2020,07,07,14,30,623.50
2020,07,07,14,31,596.70
2020,07,07,14,32,589.00
2020,07,07,14,33,572.80
2020,07,07,14,34,544.90
2020,07,07,14,35,533.70
2020,07,07,14,36,525.40
2020,07,07,14,37,511.70
2020,07,07,14,38,498.30
2020,07,07,14,39,496.30
2020,07,07,14,40,505.10
2020,07,07,14,41,515.70
2020,07,07,14,42,543.30
2020,07,07,14,43,564.30
2020,07,07,14,44,558.60
2020,07,07,14,45,540.00
2020,07,07,14,46,510.30
2020,07,07,14,47,482.30
2020,07,07,14,48,470.30
2020,07,07,14,49,463.00
2020,07,07,14,50,462.00
2020,07,07,14,51,462.30
2020,07,07,14,52,468.20
2020,07,07,14,53,459.40
2020,07,07,14,54,448.90
2020,07,07,14,55,447.90
2020,07,07,14,56,457.50
2020,07,07,14,57,465.90
2020,07,07,14,58,476.20
2020,07,07,14,59,486.20
2020,07,07,15,00,493.50
2020,07,07,15,01,494.70
2020,07,07,15,02,495.40
2020,07,07,15,03,499.90
2020,07,07,15,04,513.00
2020,07,07,15,05,523.10
2020,07,07,15,06,539.70
2020,07,07,15,07,551.00
2020,07,07,15,08,559.10
2020,07,07,15,09,547.30
2020,07,07,15,10,545.00
2020,07,07,15,11,545.00
2020,07,07,15,12,548.70
2020,07,07,15,13,557.30
2020,07,07,15,14,557.90
2020,07,07,15,15,550.30
2020,07,07,15,16,544.30
2020,07,07,15,17,537.90
2020,07,07,15,18,543.30
2020,07,07,15,19,567.30
2020,07,07,15,20,598.10
2020,07,07,15,21,651.00
2020,07,07,15,22,661.60
2020,07,07,15,23,707.70
2020,07,07,15,24,662.90
2020,07,07,15,25,662.10
2020,07,07,15,26,660.00
2020,07,07,15,27,611.40
2020,07,07,15,28,573.80
2020,07,07,15,29,569.10
2020,07,07,15,30,556.90
2020,07,07,15,31,545.30
2020,07,07,15,32,526.30
2020,07,07,15,33,535.20
2020,07,07,15,34,550.30
2020,07,07,15,35,483.20
2020,07,07,15,36,441.60
2020,07,07,15,37,418.50
2020,07,07,15,38,404.00
2020,07,07,15,39,403.80
2020,07,07,15,40,403.00
2020,07,07,15,41,412.70
2020,07,07,15,42,438.50
2020,07,07,15,43,458.00
2020,07,07,15,44,482.10
2020,07,07,15,45,494.00
2020,07,07,15,46,554.00
2020,07,07,15,47,607.60
2020,07,07,15,48,634.80
2020,07,07,15,49,674.30
2020,07,07,15,50,680.00
2020,07,07,15,51,967.70
2020,07,07,15,52,981.00
2020,07,07,15,53,981.00
2020,07,07,15,54,894.30
2020,07,07,15,55,617.00
2020,07,07,15,56,684.50
2020,07,07,15,57,810.00
2020,07,07,15,58,810.00
2020,07,07,15,59,810.00
2020,07,07,16,00,810.00
2020,07,07,16,01,810.00
2020,07,07,16,02,535.00
2020,07,07,16,03,419.60
2020,07,07,16,04,431.70
2020,07,07,16,05,429.50
2020,07,07,16,06,424.30
2020,07,07,16,07,432.30
2020,07,07,16,08,447.50
2020,07,07,16,09,464.70
2020,07,07,16,10,490.70
2020,07,07,16,11,507.50
2020,07,07,16,12,503.00
2020,07,07,16,13,577.30
2020,07,07,16,14,613.20
2020,07,07,16,15,550.90
2020,07,07,16,16,554.00
2020,07,07,16,17,593.70
2020,07,07,16,18,611.40
2020,07,07,16,19,562.40
2020,07,07,16,20,545.80
2020,07,07,16,21,590.30
2020,07,07,16,22,515.80
2020,07,07,16,23,500.00
2020,07,07,16,24,471.00
2020,07,07,16,25,450.90
2020,07,07,16,26,443.00
2020,07,07,16,27,439.30
2020,07,07,16,28,435.90
2020,07,07,16,29,445.30
2020,07,07,16,30,453.80
2020,07,07,16,31,477.70
2020,07,07,16,32,486.10
2020,07,07,16,33,469.60
2020,07,07,16,34,491.70
2020,07,07,16,35,473.30
2020,07,07,16,36,484.90
2020,07,07,16,37,481.30
2020,07,07,16,38,476.70
2020,07,07,16,39,476.10
2020,07,07,16,40,444.70
2020,07,07,16,41,459.00
2020,07,07,16,42,459.00
2020,07,07,16,43,512.30
2020,07,07,16,44,571.00
2020,07,07,16,45,571.00
2020,07,07,16,46,571.00
2020,07,07,16,47,571.00
2020,07,07,16,48,666.50
2020,07,07,16,49,689.00
2020,07,07,16,50,689.00
2020,07,07,16,51,682.70
2020,07,07,16,52,550.00
2020,07,07,16,53,550.00
2020,07,07,16,54,567.60
2020,07,07,16,55,604.90
2020,07,07,16,56,533.70
2020,07,07,16,57,473.90
2020,07,07,16,58,438.30
2020,07,07,16,59,413.70
2020,07,07,17,00,406.80
2020,07,07,17,01,427.30
2020,07,07,17,02,481.60
2020,07,07,17,03,427.10
2020,07,07,17,04,407.70
2020,07,07,17,05,409.80
2020,07,07,17,06,417.50
2020,07,07,17,07,438.00
2020,07,07,17,08,479.30
2020,07,07,17,09,490.20
2020,07,07,17,10,499.70
2020,07,07,17,11,538.70
2020,07,07,17,12,496.10
2020,07,07,17,13,495.00
2020,07,07,17,14,502.30
2020,07,07,17,15,481.30
2020,07,07,17,16,476.00
2020,07,07,17,17,441.80
2020,07,07,17,18,431.40
2020,07,07,17,19,443.10
2020,07,07,17,20,428.70
2020,07,07,17,21,464.70
2020,07,07,17,22,418.30
2020,07,07,17,23,430.00
2020,07,07,17,24,426.30
2020,07,07,17,25,431.40
2020,07,07,17,26,422.50
2020,07,07,17,27,415.00
2020,07,07,17,28,412.00
2020,07,07,17,29,417.90
2020,07,07,17,30,451.10
2020,07,07,17,31,434.30
2020,07,07,17,32,385.60
2020,07,07,17,33,373.00
2020,07,07,17,34,367.90
2020,07,07,17,35,425.20
2020,07,07,17,36,450.10
2020,07,07,17,37,489.10
2020,07,07,17,38,462.00
2020,07,07,17,39,455.80
2020,07,07,17,40,418.90
2020,07,07,17,41,373.70
2020,07,07,17,42,367.80
2020,07,07,17,43,357.40
2020,07,07,17,44,342.50
2020,07,07,17,45,331.20
2020,07,07,17,46,321.00
2020,07,07,17,47,314.40
2020,07,07,17,48,311.50
2020,07,07,17,49,311.00
2020,07,07,17,50,312.80
2020,07,07,17,51,308.60
2020,07,07,17,52,300.10
2020,07,07,17,53,289.70
2020,07,07,17,54,274.90
2020,07,07,17,55,271.90
2020,07,07,17,56,274.00
2020,07,07,17,57,275.60
2020,07,07,17,58,280.40
2020,07,07,17,59,283.00
2020,07,07,18,00,283.00
2020,07,07,18,01,281.60
2020,07,07,18,02,281.00
2020,07,07,18,03,285.60
2020,07,07,18,04,287.00
2020,07,07,18,05,299.70
2020,07,07,18,06,305.30
2020,07,07,18,07,294.50
2020,07,07,18,08,289.00
2020,07,07,18,09,283.00
2020,07,07,18,10,283.00
2020,07,07,18,11,283.70
2020,07,07,18,12,289.30
2020,07,07,18,13,291.70
2020,07,07,18,14,286.40
2020,07,07,18,15,279.40
2020,07,07,18,16,271.30
2020,07,07,18,17,260.30
2020,07,07,18,18,251.30
2020,07,07,18,19,244.90
2020,07,07,18,20,237.60
2020,07,07,18,21,229.00
2020,07,07,18,22,228.20
2020,07,07,18,23,221.70
2020,07,07,18,24,225.00
2020,07,07,18,25,227.60
2020,07,07,18,26,234.70
2020,07,07,18,27,234.40
2020,07,07,18,28,230.60
2020,07,07,18,29,226.90
2020,07,07,18,30,222.60
2020,07,07,18,31,219.00
2020,07,07,18,32,216.50
2020,07,07,18,33,213.60
2020,07,07,18,34,213.00
2020,07,07,18,35,213.90
2020,07,07,18,36,215.90
2020,07,07,18,37,213.90
2020,07,07,18,38,213.00
2020,07,07,18,39,213.00
2020,07,07,18,40,213.00
2020,07,07,18,41,213.00
2020,07,07,18,42,213.00
2020,07,07,18,43,213.00
2020,07,07,18,44,213.00
2020,07,07,18,45,214.90
2020,07,07,18,46,216.00
2020,07,07,18,47,214.50
2020,07,07,18,48,213.20
2020,07,07,18,49,213.00
2020,07,07,18,50,213.00
2020,07,07,18,51,211.00
2020,07,07,18,52,210.30
2020,07,07,18,53,203.40
2020,07,07,18,54,199.30
2020,07,07,18,55,195.90
2020,07,07,18,56,191.90
2020,07,07,18,57,190.00
2020,07,07,18,58,189.00
2020,07,07,18,59,186.90
2020,07,07,19,00,184.10
2020,07,07,19,01,180.30
2020,07,07,19,02,176.90
2020,07,07,19,03,172.90
2020,07,07,19,04,172.00
2020,07,07,19,05,167.50
2020,07,07,19,06,162.70
2020,07,07,19,07,155.50
2020,07,07,19,08,150.10
2020,07,07,19,09,146.00
2020,07,07,19,10,141.40
2020,07,07,19,11,127.70
2020,07,07,19,12,123.00
2020,07,07,19,13,120.60
2020,07,07,19,14,119.00
2020,07,07,19,15,123.00
2020,07,07,19,16,129.70
2020,07,07,19,17,134.10
2020,07,07,19,18,135.00
2020,07,07,19,19,134.10
2020,07,07,19,20,130.40
2020,07,07,19,21,130.00
2020,07,07,19,22,130.00
2020,07,07,19,23,129.60
2020,07,07,19,24,127.80
2020,07,07,19,25,125.90
2020,07,07,19,26,121.30
2020,07,07,19,27,116.00
2020,07,07,19,28,109.20
2020,07,07,19,29,102.40
2020,07,07,19,30,98.80
2020,07,07,19,31,98.00
2020,07,07,19,32,98.00
2020,07,07,19,33,98.00
2020,07,07,19,34,98.00
2020,07,07,19,35,98.00
2020,07,07,19,36,97.00
2020,07,07,19,37,98.00
2020,07,07,19,38,98.40
2020,07,07,19,39,100.00
2020,07,07,19,40,101.10
2020,07,07,19,41,99.70
2020,07,07,19,42,89.00
2020,07,07,19,43,86.00
2020,07,07,19,44,86.00
2020,07,07,19,45,89.00
2020,07,07,19,46,93.70
2020,07,07,19,47,96.40
2020,07,07,19,48,95.50
2020,07,07,19,49,95.00
2020,07,07,19,50,91.40
2020,07,07,19,51,87.80
2020,07,07,19,52,83.90
2020,07,07,19,53,83.00
2020,07,07,19,54,82.10
2020,07,07,19,55,78.40
2020,07,07,19,56,77.00
2020,07,07,19,57,77.00
2020,07,07,19,58,76.50
2020,07,07,19,59,76.50
2020,07,07,20,00,77.00
2020,07,07,20,01,78.30
2020,07,07,20,02,79.00
2020,07,07,20,03,79.00
2020,07,07,20,04,77.30
2020,07,07,20,05,77.00
2020,07,07,20,06,75.90
2020,07,07,20,07,71.80
2020,07,07,20,08,70.00
2020,07,07,20,09,70.00
2020,07,07,20,10,70.60
2020,07,07,20,11,71.30
2020,07,07,20,12,68.80
2020,07,07,20,13,66.00
2020,07,07,20,14,63.40
2020,07,07,20,15,57.30
2020,07,07,20,16,49.30
2020,07,07,20,17,43.40
2020,07,07,20,18,39.60
2020,07,07,20,19,37.30
2020,07,07,20,20,38.80
2020,07,07,20,21,42.20
2020,07,07,20,22,46.10
2020,07,07,20,23,46.80
2020,07,07,20,24,46.00
2020,07,07,20,25,44.90
2020,07,07,20,26,40.30
2020,07,07,20,27,37.00
2020,07,07,20,28,33.70
2020,07,07,20,29,29.00
2020,07,07,20,30,28.00
2020,07,07,20,31,26.70
2020,07,07,20,32,26.00
2020,07,07,20,33,25.20
2020,07,07,20,34,25.00
2020,07,07,20,35,23.20
2020,07,07,20,36,20.90
2020,07,07,20,37,19.00
2020,07,07,20,38,19.00
2020,07,07,20,39,19.00
2020,07,07,20,40,18.70
2020,07,07,20,41,18.00
2020,07,07,20,42,17.10
2020,07,07,20,43,16.00
2020,07,07,20,44,14.90
2020,07,07,20,45,14.00
2020,07,07,20,46,14.00
2020,07,07,20,47,14.00
2020,07,07,20,48,14.00
2020,07,07,20,49,12.30
2020,07,07,20,50,12.00
2020,07,07,20,51,11.00
2020,07,07,20,52,11.00
2020,07,07,20,53,10.60
2020,07,07,20,54,9.00
2020,07,07,20,55,8.40
2020,07,07,20,56,7.00
2020,07,07,20,57,7.00
2020,07,07,20,58,7.00
2020,07,07,20,59,7.00
2020,07,07,21,00,5.80
2020,07,07,21,01,5.00
2020,07,07,21,02,5.00
2020,07,07,21,03,5.00
2020,07,07,21,04,0.70
2020,07,07,21,05,0.00
2020,07,07,21,06,0.00
2020,07,07,21,07,0.00
2020,07,07,21,08,0.00
2020,07,07,21,09,0.00
2020,07,07,21,10,0.00
2020,07,07,21,11,0.00
2020,07,07,21,12,0.00
2020,07,07,21,13,0.00
2020,07,07,21,14,0.00
2020,07,07,21,15,0.00
2020,07,07,21,16,0.00
2020,07,07,21,17,0.00
2020,07,07,21,18,0.00
2020,07,07,21,19,0.00
2020,07,07,21,20,0.00
2020,07,07,21,21,0.00
2020,07,07,21,22,0.00
2020,07,07,21,23,0.00
2020,07,07,21,24,0.00
2020,07,07,21,25,0.00
2020,07,07,21,26,0.00
2020,07,07,21,27,0.00
2020,07,07,21,28,0.00
2020,07,07,21,29,0.00
2020,07,07,21,30,0.00
2020,07,07,21,31,0.00
2020,07,07,21,32,0.00
2020,07,07,21,33,0.00
2020,07,07,21,34,0.00
2020,07,07,21,35,0.00
2020,07,07,21,36,0.00
2020,07,07,21,37,0.00
2020,07,07,21,38,0.00
2020,07,07,21,39,0.00
2020,07,07,21,40,0.00
2020,07,07,21,41,0.00
2020,07,07,21,42,0.00
2020,07,07,21,43,0.00
2020,07,07,21,44,0.00
2020,07,07,21,45,0.00
2020,07,07,21,46,0.00
2020,07,07,21,47,0.00
2020,07,07,21,48,0.00
2020,07,07,21,49,0.00
2020,07,07,21,50,0.00
2020,07,07,21,51,0.00
2020,07,07,21,52,0.00
2020,07,07,21,53,0.00
2020,07,07,21,54,0.00
2020,07,07,21,55,0.00
2020,07,07,21,56,0.00
2020,07,07,21,57,0.00
2020,07,07,21,58,0.00
2020,07,07,21,59,0.00
2020,07,07,22,00,0.00
2020,07,07,22,01,0.00
2020,07,07,22,02,0.00
2020,07,07,22,03,0.00
2020,07,07,22,04,0.00
2020,07,07,22,05,0.00
2020,07,07,22,06,0.00
2020,07,07,22,07,0.00
2020,07,07,22,08,0.00
2020,07,07,22,09,0.00
2020,07,07,22,10,0.00
2020,07,07,22,11,0.00
2020,07,07,22,12,0.00
2020,07,07,22,13,0.00
2020,07,07,22,14,0.00
2020,07,07,22,15,0.00
2020,07,07,22,16,0.00
2020,07,07,22,17,0.00
2020,07,07,22,18,0.00
2020,07,07,22,19,0.00
2020,07,07,22,20,0.00
2020,07,07,22,21,0.00
2020,07,07,22,22,0.00
2020,07,07,22,23,0.00
2020,07,07,22,24,0.00
2020,07,07,22,25,0.00
2020,07,07,22,26,0.00
2020,07,07,22,27,0.00
2020,07,07,22,28,0.00
2020,07,07,22,29,0.00
2020,07,07,22,30,0.00
2020,07,07,22,31,0.00
2020,07,07,22,32,0.00
2020,07,07,22,33,0.00
2020,07,07,22,34,0.00
2020,07,07,22,35,0.00
2020,07,07,22,36,0.00
2020,07,07,22,37,0.00
2020,07,07,22,38,0.00
2020,07,07,22,39,0.00
2020,07,07,22,40,0.00
2020,07,07,22,41,0.00
2020,07,07,22,42,0.00
2020,07,07,22,43,0.00
2020,07,07,22,44,0.00
2020,07,07,22,45,0.00
2020,07,07,22,46,0.00
2020,07,07,22,47,0.00
2020,07,07,22,48,0.00
2020,07,07,22,49,0.00
2020,07,07,22,50,0.00
2020,07,07,22,51,0.00
2020,07,07,22,52,0.00
2020,07,07,22,53,0.00
2020,07,07,22,54,0.00
2020,07,07,22,55,0.00
2020,07,07,22,56,0.00
2020,07,07,22,57,0.00
2020,07,07,22,58,0.00
2020,07,07,22,59,0.00
2020,07,07,23,00,0.00
2020,07,07,23,01,0.00
2020,07,07,23,02,0.00
2020,07,07,23,03,0.00
2020,07,07,23,04,0.00
2020,07,07,23,05,0.00
2020,07,07,23,06,0.00
2020,07,07,23,07,0.00
2020,07,07,23,08,0.00
2020,07,07,23,09,0.00
2020,07,07,23,10,0.00
2020,07,07,23,11,0.00
2020,07,07,23,12,0.00
2020,07,07,23,13,0.00
2020,07,07,23,14,0.00
2020,07,07,23,15,0.00
2020,07,07,23,16,0.00
2020,07,07,23,17,0.00
2020,07,07,23,18,0.00
2020,07,07,23,19,0.00
2020,07,07,23,20,0.00
2020,07,07,23,21,0.00
2020,07,07,23,22,0.00
2020,07,07,23,23,0.00
2020,07,07,23,24,0.00
2020,07,07,23,25,0.00
2020,07,07,23,26,0.00
2020,07,07,23,27,0.00
2020,07,07,23,28,0.00
2020,07,07,23,29,0.00
2020,07,07,23,30,0.00
2020,07,07,23,31,0.00
2020,07,07,23,32,0.00
2020,07,07,23,33,0.00
2020,07,07,23,34,0.00
2020,07,07,23,35,0.00
2020,07,07,23,36,0.00
2020,07,07,23,37,0.00
2020,07,07,23,38,0.00
2020,07,07,23,39,0.00
2020,07,07,23,40,0.00
2020,07,07,23,41,0.00
2020,07,07,23,42,0.00
2020,07,07,23,43,0.00
2020,07,07,23,44,0.00
2020,07,07,23,45,0.00
2020,07,07,23,46,0.00
2020,07,07,23,47,0.00
2020,07,07,23,48,0.00
2020,07,07,23,49,0.00
2020,07,07,23,50,0.00
2020,07,07,23,51,0.00
2020,07,07,23,52,0.00
2020,07,07,23,53,0.00